Tracking 23762 objects as of 20-Oct-2021
HD Live streaming from Space Station
objects crossing your sky now

CZ-3C DEB

Track CZ-3C DEB now!


NORAD ID: 39340
Int'l Code: 2010-057E
Perigee: 500.1 km
Apogee: 35,673.5 km
Inclination: 19.5 °
Period: 634.4 minutes
Semi major axis: 24457 km
RCS: 0.3142 m2 (medium)
Launch date: October 31, 2010
Source: People's Republic of China (PRC)
Launch site: Xichang Space Center, China (XSC)

Note: This is SATELLITE DEBRIS
aabbcc
Your satellite tracking list
Your tracking list is empty




NASA's NSSDC Master Catalog

Two Line Element Set (TLE):
1 39340U 10057E   21292.02420401  .00000397  00000-0  40274-2 0  9999
2 39340  19.5325 250.5118 7190643 337.5148   2.4300  2.26974681 66331
Source of the keplerian elements: AFSPC